Torna al catalogo

ARIANE 1 DEB

AttivoGTO
NORAD 27732·DEBRIS·🇫🇷 France

Lanciato Dec 24, 1979 da Guiana Space Centre

Loading…

TLE

In scadenzaSource: Space-Track

Epoca: Sep 14, 2026, 13:11 UTC

1 27732U 79104S   26257.54978685  .00000460  00000-0  73863-1 0  9994
2 27732  16.7540 338.7340 7326007 236.8931  31.8730  1.93238128 87779

Traccia ARIANE 1 DEB in tempo reale con AllMySat

Download on the App Store